Regional Weather Roundup
Issued by NWS

Home | Current Version | Previous Version | Graphics & Text | Print | Product List | Glossary On
Versions: 1 2 3 4 5 6 7 8 9 10 11 12 13 14 15 16 17 18 19 20 21 22 23 24 25 26 27 28 29 30 31 32 33 34 35 36 37 38 39 40 41 42 43 44 45 46 47 48 49 50
000
ASUS43 KLMK 240402
RWRKY
KENTUCKY REGIONAL WEATHER ROUNDUP
NATIONAL WEATHER SERVICE LOUISVILLE KY
1200 AM EDT FRI MAR 24 2017

NOTE "FAIR" INDICATES FEW OR NO CLOUDS BELOW 12,000 FEET
WITH NO SIGNIFICANT WEATHER AND/OR OBSTRUCTIONS TO VISIBILITY.

KYZ001>023-026-027-061>063-070>075-240500-
WESTERN AND SOUTH CENTRAL KENTUCKY

CITY           SKY/WX    TMP DP  RH WIND       PRES   REMARKS
PADUCAH        CLEAR     55  42  61 SE8       30.09F
HENDERSON      CLEAR     54  41  62 SE8       30.12F
OWENSBORO      CLEAR     51  43  74 SE8       30.15F
HOPKINSVILLE   CLEAR     60  44  54 SE9       30.15F
BOWLING GREEN  CLEAR     55  43  63 SE6       30.21S
GLASGOW        NOT AVBL
$$

KYZ024-025-028>034-038-045-046-053-240500-
NORTH CENTRAL KENTUCKY

CITY           SKY/WX    TMP DP  RH WIND       PRES   REMARKS
LOUISVILLE/SDF PTCLDY    56  35  45 SE5       30.19F
LOUISVILLE/LOU CLEAR     58  37  45 S6        30.20F
FORT KNOX      CLEAR     57  41  54 SE15      30.18F
$$

KYZ035>037-039>044-047>052-055>060-089>105-240500-
NORTHEAST KENTUCKY

CITY           SKY/WX    TMP DP  RH WIND       PRES   REMARKS
LEXINGTON      CLEAR     55  35  47 S10       30.23S
COVINGTON      MOCLDY    51  34  52 S9        30.20F
FRANKFORT      CLEAR     53  34  48 S5        30.21S
$$

KYZ054-064>069-076>088-106>120-240500-
SOUTHEAST KENTUCKY

CITY           SKY/WX    TMP DP  RH WIND       PRES   REMARKS
JACKSON        CLOUDY    58  32  37 S6        30.27F
LONDON         PTCLDY    57  36  45 S6        30.28F
SOMERSET       NOT AVBL
MIDDLESBORO    CLEAR     57  38  49 CALM      30.32F
MONTICELLO     CLEAR     58  39  49 VRB7      30.28F
$$




USA.gov is the U.S. government's official web portal to all federal, state and local government web resources and services.